Modesto, CA

12:29 AM PST on January 16, 2018 (GMT -0800)
Modesto City-County-Sham

Weather History for KMOD - November, 2011

Change the Weather History Date:

Sunday, November 6, 2011

  Actual Average Record
Temperature  
Mean Temperature 53 °F -  
Max Temperature 59 °F 70 °F 82 °F (2012)
Min Temperature 46 °F 47 °F 30 °F (1935)
Degree Days  
Heating Degree Days 12 7  
Month to date heating degree days 57 36  
Since 1 July heating degree days 103 99  
Cooling Degree Days 0 0  
Month to date cooling degree days 0 0  
Year to date cooling degree days 1489 1696  
Growing Degree Days 2 (Base 50)    
Moisture  
Dew Point 43 °F    
Average Humidity 73    
Maximum Humidity 93    
Minimum Humidity 53    
Precipitation  
Precipitation 0.01 in 0.04 in 0.75 in (1970)
Month to date precipitation 0.31 0.24  
Year to date precipitation 10.28 9.95  
Since 1 July precipitation 1.31  
Snow  
Snow 0.00 in - 0.00 in (2002)
Month to date snowfall 0.0  
Since 1 July snowfall 0.0  
Since 1 September snowfall 0.0  
Snow Depth -    
Sea Level Pressure  
Sea Level Pressure 30.02 in    
Wind  
Wind Speed 5 mph (ESE)    
Max Wind Speed 21 mph    
Max Gust Speed 28 mph    
Visibility 10 miles    
Events      
T = Trace of Precipitation, MM = Missing Value Source: NWS Daily Summary

Daily Weather History Graph

Daily Weather History Graph

Search for Another Location

Airport or City:

Trip Planner

Search our weather history database for the weather conditions in past years. The results will help you decide how hot, cold, wet, or windy it might be!

Date:

Astronomy

Nov. 06, 2011 Rise Set
Actual Time 6:33 AM PST 5:00 PM PST
Civil Twilight 6:06 AM PST 5:27 PM PST
Nautical Twilight 5:35 AM PST 5:58 PM PST
Astronomical Twilight 5:04 AM PST 6:29 PM PST
Moon 2:43 PM PST (11/6) 2:48 AM PST (11/6)
Length of Visible Light 11h 21m
Length of Day
10h 26m
Waxing Gibbous, 86% of the Moon is Illuminated
Nov 6
Waxing Gibbous
Nov 10
Full
Nov 18
Last Quarter
Nov 24
New
Dec 2
First Quarter

Hourly Weather History & Observations

Time (PST) Temp. Windchill Dew Point Humidity Pressure Visibility Wind Dir Wind Speed Gust Speed Precip Events Conditions
12:53 AM 48.0 °F - 44.1 °F 86% 29.95 in 10.0 mi Calm Calm - N/A   Overcast
1:53 AM 48.0 °F - 44.1 °F 86% 29.95 in 10.0 mi ESE 11.5 mph - 0.01 in   Overcast
1:53 AM 48.0 °F - 44.1 °F 86% 29.96 in 10.0 mi SSE 9.2 mph - N/A   Overcast
2:53 AM 48.0 °F - 43.0 °F 83% 29.95 in 10.0 mi Calm Calm - N/A   Overcast
3:18 AM 48.2 °F - 42.8 °F 82% 29.96 in 10.0 mi Variable 6.9 mph - N/A   Overcast
3:53 AM 48.0 °F - 42.1 °F 80% 29.95 in 10.0 mi SSE 13.8 mph 19.6 mph N/A   Overcast
4:02 AM 48.2 °F - 42.8 °F 82% 29.94 in 10.0 mi SE 19.6 mph 26.5 mph N/A   Overcast
4:53 AM 46.9 °F - 42.1 °F 83% 29.96 in 10.0 mi SSE 8.1 mph - N/A   Mostly Cloudy
5:53 AM 46.9 °F - 43.0 °F 86% 29.98 in 10.0 mi SSE 6.9 mph - N/A   Overcast
6:53 AM 46.0 °F 43.9 °F 43.0 °F 89% 29.99 in 10.0 mi SE 4.6 mph - N/A   Clear
7:36 AM 46.4 °F 45.2 °F 42.8 °F 87% 30.00 in 10.0 mi ESE 3.5 mph - N/A   Mostly Cloudy
7:53 AM 46.9 °F - 44.1 °F 90% 30.02 in 10.0 mi SE 4.6 mph - N/A   Overcast
8:53 AM 48.9 °F - 44.1 °F 83% 30.03 in 10.0 mi SSE 5.8 mph - N/A   Mostly Cloudy
9:00 AM 50.0 °F - 44.6 °F 82% 30.03 in 10.0 mi SE 5.8 mph - N/A   Mostly Cloudy
9:53 AM 52.0 °F - 45.0 °F 77% 30.05 in 10.0 mi Variable 4.6 mph - N/A   Mostly Cloudy
10:24 AM 53.6 °F - 46.4 °F 77% 30.05 in 10.0 mi Calm Calm - N/A   Mostly Cloudy
10:53 AM 54.0 °F - 44.1 °F 69% 30.05 in 10.0 mi Calm Calm - N/A   Mostly Cloudy
11:08 AM 53.6 °F - 44.6 °F 72% 30.04 in 10.0 mi Variable 3.5 mph - N/A   Mostly Cloudy
11:53 AM 54.0 °F - 42.1 °F 64% 30.03 in 10.0 mi Calm Calm - N/A   Mostly Cloudy
12:53 PM 57.0 °F - 42.1 °F 57% 30.02 in 10.0 mi NNE 3.5 mph - N/A   Partly Cloudy
1:53 PM 57.9 °F - 42.1 °F 56% 30.01 in 10.0 mi North 6.9 mph - N/A   Mostly Cloudy
2:53 PM 59.0 °F - 43.0 °F 55% 30.01 in 10.0 mi NNE 8.1 mph - N/A   Scattered Clouds
3:53 PM 57.9 °F - 41.0 °F 53% 30.02 in 10.0 mi Variable 5.8 mph - N/A   Partly Cloudy
5:53 PM 52.0 °F - 42.1 °F 69% 30.05 in 10.0 mi NW 3.5 mph - N/A   Clear
6:53 PM 50.0 °F - 42.1 °F 74% 30.07 in 10.0 mi North 3.5 mph - N/A   Clear
7:53 PM 48.0 °F - 43.0 °F 83% 30.07 in 9.0 mi West 3.5 mph - N/A   Clear
8:53 PM 46.0 °F - 43.0 °F 89% 30.09 in 9.0 mi Calm Calm - N/A   Partly Cloudy
9:53 PM 48.0 °F - 43.0 °F 83% 30.10 in 9.0 mi Calm Calm - N/A   Overcast
10:53 PM 48.9 °F - 43.0 °F 80% 30.12 in 10.0 mi NW 6.9 mph - N/A   Overcast